Wind_Speed
27 28 24 17 12 11 9 9 8 7 9 10 6 7 7 8 9 6 7 3 2 3 1 1 1 2 3 6 9 5 9 16 24 25 22 19 19 18 22 15 12 17 16 4 24
24 22 19 19 14 12 8 8 6 6 8 8 7 5 6 7 8 9 6 5 4 4 3 0 1 2 5 5 6 11 13 20 21 18 16 23 17 15 11 18 19 16 10 16 22
23 22 23 23 17 13 8 7 6 6 7 7 6 4 5 6 5 1 4 7 5 6 4 2 1 2 7 9 9 10 19 17 14 16 15 15 15 17 20 17 19 17 15 15 22
24 20 26 25 19 14 9 7 5 4 7 7 4 3 6 2 3 5 6 5 6 6 4 2 1 3 4 9 12 14 17 17 18 13 13 13 16 13 17 21 20 11 14 16 17
23 23 19 19 21 13 8 5 3 7 5 6 4 4 1 4 6 7 6 6 5 2 4 4 5 4 8 6 7 16 20 16 12 15 19 15 15 15 15 8 9 11 14 20 19
23 23 20 15 20 14 6 5 5 4 3 5 5 4 4 7 2 7 7 5 4 4 4 5 3 4 8 11 12 9 16 21 14 14 14 18 17 11 8 12 14 12 11 17 19
24 24 25 16 21 13 6 7 3 3 7 7 8 4 6 9 3 7 6 5 6 6 6 8 7 7 2 9 15 17 18 15 16 19 15 16 20 15 6 6 15 12 13 13 18
22 23 19 24 16 13 9 8 2 4 5 8 8 3 6 3 5 8 7 6 5 6 5 3 6 9 6 7 8 13 17 17 17 15 12 11 20 17 3 5 9 13 15 11 15
23 23 25 22 22 15 11 6 5 3 2 6 5 4 5 2 6 6 8 8 5 5 5 4 7 5 3 7 7 12 12 19 16 18 12 14 8 5 2 5 8 13 15 11 18
22 22 30 27 22 18 13 11 8 4 5 3 1 3 5 3 3 3 4 6 7 4 5 6 4 4 4 6 8 10 17 16 17 20 17 13 9 7 4 4 12 14 15 11 10
19 17 14 23 25 21 21 13 7 2 6 7 3 2 2 2 1 4 4 5 6 5 9 5 5 10 11 16 6 2 12 14 15 19 17 12 8 9 5 2 9 13 12 12 8
16 15 19 18 19 19 18 5 5 3 3 14 5 7 6 1 4 7 6 4 5 9 7 5 10 13 13 14 13 2 13 15 9 19 11 10 10 6 8 4 7 13 10 10 2
13 19 26 23 21 16 10 10 4 4 3 4 4 5 1 6 3 4 5 0 6 9 12 11 5 9 8 7 8 8 12 12 11 14 5 11 5 4 3 2 7 8 9 7 4
11 11 27 25 12 11 4 16 3 3 1 5 3 1 4 3 3 4 6 4 3 5 5 7 5 6 8 11 9 9 15 10 16 15 5 7 4 9 13 7 4 6 5 5 4
9 8 21 19 13 7 3 16 8 1 3 4 3 2 1 4 2 4 5 5 4 2 3 2 3 6 5 7 13 3 14 16 19 10 7 9 4 6 10 4 6 5 8 6 7
6 5 19 11 10 7 12 18 6 2 2 3 2 2 3 3 1 1 4 5 5 1 1 2 2 3 3 7 15 7 8 3 1 3 5 4 6 2 6 5 0 1 10 8 9
6 10 18 13 6 16 21 7 3 3 1 4 2 3 3 3 2 2 3 4 5 2 3 2 2 2 2 6 8 7 11 3 3 3 4 2 2 4 5 6 4 10 9 2 7
5 3 21 9 20 24 10 2 3 2 3 2 2 2 4 3 1 3 4 6 6 4 2 3 3 3 1 2 3 4 2 2 5 4 4 3 5 5 9 8 9 5 5 3 6
3 17 13 12 19 12 6 2 2 2 4 7 3 3 2 2 2 4 5 7 6 9 3 2 4 6 7 4 2 1 3 2 5 3 5 3 5 5 6 11 10 9 10 12 10
5 10 5 14 16 3 1 2 1 1 2 1 1 2 2 3 1 3 6 5 7 6 4 3 4 6 6 5 3 5 1 1 1 4 5 5 8 6 7 9 9 13 13 13 12
8 3 6 17 8 2 1 1 2 1 2 2 2 4 2 1 3 3 4 3 6 7 5 3 3 4 3 7 8 4 2 4 1 3 4 5 5 6 3 5 10 10 9 8 9
4 3 11 13 3 1 1 2 2 2 1 1 2 3 2 1 3 2 3 3 10 4 4 4 3 4 4 2 4 3 5 3 2 4 4 8 5 5 5 7 8 8 6 7 9
3 3 6 3 2 4 2 1 2 2 1 1 2 1 1 2 1 1 2 3 7 5 4 3 3 2 4 4 2 5 6 4 2 1 3 3 6 4 7 6 10 9 8 7 9
3 3 2 2 2 4 2 2 3 1 1 1 2 1 2 2 4 3 1 3 5 4 7 1 4 5 3 4 2 2 7 9 5 3 7 10 15 5 8 8 8 8 9 10 11
3 3 4 4 5 5 2 2 4 2 2 3 2 3 2 2 1 2 1 2 1 5 2 2 4 4 7 6 3 6 7 8 5 3 5 7 8 9 9 9 10 10 11 12 13
3 4 3 3 8 4 3 4 7 2 1 1 3 3 4 3 3 1 1 0 2 4 3 2 4 2 3 5 4 6 4 3 5 3 5 4 9 6 5 8 10 10 10 11 11
3 2 3 6 8 5 4 4 6 4 2 3 3 4 8 4 5 6 6 6 4 2 3 2 2 1 2 5 1 5 5 5 3 5 3 3 5 7 8 8 5 7 8 8 10
Wind_Direction
338 340 252 253 252 260 271 282 277 292 316 304 272 300 306 305 303 283 254 227 164 204 185 276 262 275 238 226 228 236 241 237 235 235 242 238 242 229 244 256 258 203 236 66 147
345 328 258 241 244 250 262 282 268 278 309 294 263 279 293 305 303 271 247 199 223 192 153 120 243 276 230 226 220 223 237 237 246 249 240 246 219 239 236 243 249 234 233 150 152
340 334 337 242 236 239 251 268 260 278 299 287 255 274 300 308 289 198 158 197 171 142 114 94 88 252 235 230 219 223 240 243 255 256 267 280 245 254 234 236 253 253 231 177 153
328 321 338 234 229 225 227 265 255 283 291 281 254 255 297 260 305 160 164 172 158 136 127 150 189 231 251 232 229 248 248 251 261 267 283 267 260 258 240 218 238 314 310 168 165
326 325 321 250 226 207 221 245 256 289 283 297 209 239 247 235 247 188 180 160 155 183 243 211 228 243 249 250 259 245 250 253 259 255 263 273 265 254 265 302 307 312 314 189 180
327 326 323 296 212 197 206 196 252 276 280 289 225 223 225 248 198 182 188 187 186 184 196 207 254 268 283 265 254 265 256 255 246 254 271 255 260 257 237 349 298 324 301 220 189
328 323 329 311 198 174 181 180 212 258 273 263 211 203 241 254 195 200 202 208 192 198 218 222 230 218 307 278 261 250 254 257 237 236 240 243 250 240 240 347 277 291 326 293 200
327 324 316 333 180 163 163 171 265 283 250 228 187 192 259 230 211 233 213 207 208 210 223 220 216 248 235 267 277 240 233 241 237 217 215 209 239 233 85 20 311 317 334 294 209
325 323 314 304 172 159 157 174 158 199 247 180 160 223 264 226 225 228 215 237 208 197 218 205 175 207 213 230 229 226 223 220 232 202 182 204 231 196 359 347 331 319 325 306 216
324 325 322 169 158 147 146 134 130 122 115 122 185 227 232 206 169 165 194 219 239 230 244 225 233 237 203 196 224 209 222 211 219 180 192 194 236 255 292 331 324 315 311 297 248
318 322 14 156 151 149 143 128 104 139 207 218 186 287 217 149 264 214 192 197 207 216 242 242 218 239 222 223 260 56 234 208 200 172 189 198 242 246 211 252 319 299 301 306 262
309 308 317 170 151 152 156 164 151 83 220 230 257 262 249 184 244 196 185 234 223 247 235 211 251 269 261 239 223 196 230 206 165 161 183 184 214 224 195 183 275 274 300 307 256
306 309 310 165 152 161 180 172 131 129 260 198 206 256 114 191 255 201 195 145 243 252 237 235 235 328 241 206 194 235 236 182 149 153 168 169 188 211 126 248 250 266 279 282 219
307 311 144 147 147 174 196 199 176 133 284 171 205 191 159 219 216 173 194 224 208 268 254 243 255 208 166 180 196 216 210 197 160 160 119 217 147 42 6 306 265 282 246 218 141
282 301 167 161 154 163 170 161 172 169 217 123 153 114 182 252 337 200 188 166 231 229 262 80 127 145 184 210 194 178 171 192 173 136 123 26 97 345 353 260 186 295 190 180 134
263 265 169 159 147 149 143 151 133 183 226 169 138 201 221 167 182 225 237 195 169 186 114 48 327 238 280 182 190 281 154 199 83 80 58 341 67 73 331 345 143 278 121 158 161
271 282 208 167 168 149 144 136 139 228 271 157 161 211 103 19 4 253 286 322 27 241 39 289 89 251 296 180 191 246 161 115 90 74 79 310 150 12 1 23 354 329 327 101 151
311 33 140 143 151 147 151 122 211 95 200 134 174 160 74 12 200 342 293 5 57 52 40 69 114 11 307 71 176 138 332 358 116 118 114 36 43 339 2 48 103 325 318 69 92
312 124 114 137 156 151 178 193 345 210 151 155 166 98 70 46 310 331 27 7 360 5 29 78 64 330 30 347 313 180 48 319 104 86 100 94 129 81 52 43 53 79 89 72 64
112 92 61 152 155 156 174 356 334 249 142 147 108 347 104 24 331 14 15 7 341 6 310 61 110 14 320 308 91 33 359 202 23 111 96 102 69 67 18 29 49 49 49 60 64
102 83 106 147 127 179 172 358 312 249 312 351 97 111 87 71 32 46 22 356 351 342 12 2 357 65 265 11 4 15 30 39 74 359 129 124 74 7 32 61 66 63 58 57 68
88 86 142 149 114 176 172 336 292 167 263 18 71 84 83 75 59 73 55 357 346 318 24 10 75 84 71 318 291 339 18 352 315 91 40 93 75 19 58 72 54 68 68 59 36
76 81 147 310 122 178 317 272 269 169 254 76 93 16 32 76 81 44 345 359 4 22 11 354 32 114 128 166 136 25 5 12 36 45 35 118 128 63 80 53 20 15 13 15 15
117 109 81 302 7 187 223 177 146 86 114 58 96 156 124 67 37 112 91 333 350 25 39 331 45 1 66 62 19 33 13 7 18 39 92 93 126 78 38 35 32 25 13 13 22
44 114 161 177 176 187 275 191 163 132 52 21 101 74 80 105 92 78 42 334 8 12 57 33 85 63 50 21 33 56 47 35 59 59 92 110 99 45 32 28 26 24 32 39 37
123 148 130 150 154 179 233 195 174 119 341 80 130 74 36 63 6 57 134 48 6 7 53 34 118 144 92 50 64 75 52 58 62 75 92 123 116 42 48 50 52 49 35 28 19
116 75 127 142 161 183 182 158 181 155 61 22 131 101 68 47 65 62 72 69 50 16 58 44 115 1 69 1 30 109 29 32 80 55 5 51 48 19 26 29 40 48 36 15 356
Height
807 804 801 803 805 805 805 804 806 805 804 805 804 805 805 804 801 801 799 798 797 797 797 797 797 798 797 794 794 790 787 776 768 766 763 756 763 763 762 763 757 759 762 766 768
804 799 797 798 800 802 802 802 802 803 802 802 803 804 804 802 799 796 796 796 797 796 797 796 795 797 793 792 792 789 779 771 764 760 758 757 764 762 765 764 758 759 763 773 776
800 798 795 793 795 798 799 799 799 800 801 802 802 803 801 801 798 792 793 795 796 795 795 796 797 797 794 791 787 783 778 769 767 767 761 764 761 762 765 771 757 754 757 768 772
798 794 791 788 789 791 796 798 799 798 800 800 800 801 800 800 792 792 794 795 794 794 796 796 796 795 795 791 785 785 776 775 774 772 772 772 765 764 759 758 751 759 756 763 763
794 791 786 785 785 788 792 795 796 798 798 800 800 799 800 797 793 792 793 794 794 794 795 795 795 794 791 788 788 783 776 773 775 775 772 770 768 767 762 755 755 761 760 760 763
792 787 783 780 781 783 788 791 794 794 796 797 799 799 801 796 790 792 792 793 794 795 795 795 794 795 793 792 789 777 776 772 773 773 771 770 764 766 759 759 756 757 759 758 758
788 784 781 776 776 780 786 788 790 791 794 795 798 799 799 790 790 791 790 791 792 793 793 794 795 795 793 791 784 780 779 770 768 769 769 764 765 762 762 761 756 755 757 754 753
785 782 777 780 774 778 783 784 787 791 792 794 796 799 792 788 789 789 790 790 790 791 792 793 794 794 795 791 786 777 775 770 758 762 765 767 756 747 762 760 760 755 755 750 753
782 778 773 770 770 775 780 782 786 789 792 793 796 797 788 787 788 787 788 788 789 791 790 791 792 792 798 794 783 769 760 765 757 752 758 764 756 753 764 762 761 755 757 759 752
780 774 765 764 767 773 778 781 785 789 793 795 795 797 788 783 784 784 785 787 787 787 788 789 789 790 788 787 759 756 758 751 752 749 754 759 762 756 755 755 756 754 754 752 752
777 774 768 762 766 771 776 781 787 791 792 783 780 780 782 783 783 783 784 785 784 783 783 783 790 779 777 769 761 767 753 745 740 741 750 752 754 754 753 754 757 755 755 749 744
774 771 770 769 770 771 774 774 775 781 781 782 783 783 782 781 781 781 783 782 780 778 777 786 779 771 765 765 763 778 756 742 737 740 742 752 750 748 748 752 756 758 751 746 743
770 767 761 765 769 772 773 775 775 778 778 778 779 778 778 781 777 776 780 781 779 777 775 778 768 775 769 767 767 771 753 737 736 743 742 745 749 748 744 748 751 749 746 746 746
767 764 760 764 772 770 773 773 775 778 779 773 777 776 778 777 776 777 778 780 780 775 773 773 771 770 768 761 761 754 748 735 735 731 736 746 743 739 744 747 744 745 744 746 746
765 764 763 764 763 768 769 770 776 780 764 777 774 776 775 773 773 772 775 778 776 775 780 765 766 769 768 756 754 737 742 736 732 731 733 739 733 750 748 747 747 745 743 747 747
761 762 761 763 764 766 768 771 778 781 763 777 771 770 769 769 770 769 772 775 772 777 770 770 766 764 751 744 749 742 747 743 733 733 742 744 742 756 757 752 750 745 742 744 746
758 757 761 762 764 765 769 774 777 765 778 770 768 766 760 762 764 766 762 757 759 757 762 767 761 757 752 746 745 741 743 746 746 745 753 749 743 759 748 745 748 743 744 741 744
755 755 757 761 763 766 771 773 765 768 769 769 765 762 758 764 763 761 758 750 751 760 757 750 751 756 752 747 740 738 737 735 742 740 746 745 760 762 749 745 751 753 750 745 745
754 756 759 763 767 771 769 769 762 764 762 761 762 755 759 762 765 758 758 756 754 755 747 743 756 759 751 747 745 737 741 744 741 742 738 756 759 752 747 745 748 750 749 745 745
752 757 764 767 771 773 770 767 768 771 766 763 753 759 755 759 758 755 756 759 757 757 755 752 753 764 758 746 744 739 744 739 739 738 749 755 750 754 753 755 750 748 746 748 747
754 761 769 772 774 772 770 769 768 769 766 760 758 760 761 760 762 760 763 761 760 756 753 751 743 762 756 753 753 742 739 744 743 742 729 742 757 761 760 761 755 754 755 757 758
757 764 773 775 778 773 769 775 770 767 767 763 761 760 759 762 761 761 763 765 762 762 753 755 750 759 759 760 760 755 752 748 736 748 757 732 761 761 760 758 757 760 762 762 760
762 770 778 778 775 772 777 774 770 766 764 762 761 762 762 762 762 765 765 764 764 761 759 756 756 754 754 758 756 754 756 754 754 750 759 737 761 764 760 760 760 760 760 761 763
763 774 781 781 777 772 775 768 766 767 765 765 763 762 762 763 764 766 766 764 766 764 767 762 764 760 753 764 768 761 757 753 755 749 747 747 763 766 766 768 768 768 767 763 762
763 771 774 777 776 777 778 768 765 763 765 764 762 761 761 762 764 765 767 764 763 766 764 761 772 780 772 770 770 764 764 761 769 764 755 765 764 776 775 774 772 770 769 768 767
762 764 770 769 772 778 776 768 763 768 765 763 762 765 762 762 765 763 766 766 766 761 764 766 774 779 773 772 769 768 769 769 768 768 765 767 774 780 778 777 776 776 775 774 774
763 765 762 775 775 778 768 769 766 766 771 770 766 764 766 772 771 773 772 772 771 766 767 767 769 768 771 775 769 764 774 772 773 773 771 764 777 778 777 780 781 781 783 782 781